TimeCST,TemperatureF,Dew PointF,Humidity,Sea Level PressureIn,VisibilityMPH,Wind Direction,Wind SpeedMPH,Gust SpeedMPH,PrecipitationIn,Events,Conditions,WindDirDegrees,DateUTC
12:05 AM,44.6,41.0,87,30.04,5.0,NE,5.8,-,N/A,,Overcast,50,2012-11-06 06:05:00
12:14 AM,44.6,41.0,87,30.05,5.0,NE,5.8,-,N/A,,Overcast,40,2012-11-06 06:14:00
12:44 AM,44.6,41.0,87,30.05,5.0,North,4.6,-,N/A,,Overcast,10,2012-11-06 06:44:00
12:53 AM,45.0,42.1,90,30.06,4.0,North,5.8,-,N/A,,Overcast,10,2012-11-06 06:53:00
1:29 AM,44.6,41.0,87,30.06,5.0,NNE,4.6,-,N/A,,Overcast,20,2012-11-06 07:29:00
1:53 AM,44.1,41.0,89,30.07,5.0,North,4.6,-,N/A,,Overcast,10,2012-11-06 07:53:00
2:53 AM,44.1,41.0,89,30.06,5.0,NNE,4.6,-,N/A,,Overcast,20,2012-11-06 08:53:00
3:53 AM,44.1,39.9,85,30.05,5.0,NNE,3.5,-,N/A,,Overcast,20,2012-11-06 09:53:00
4:53 AM,44.1,39.9,85,30.07,5.0,NW,4.6,-,N/A,,Overcast,320,2012-11-06 10:53:00
5:53 AM,44.1,41.0,89,30.07,4.0,North,3.5,-,N/A,,Overcast,350,2012-11-06 11:53:00
6:53 AM,44.1,41.0,89,30.07,3.0,Calm,Calm,-,N/A,,Overcast,0,2012-11-06 12:53:00
7:27 AM,44.6,39.2,81,30.06,4.0,Calm,Calm,-,N/A,,Overcast,0,2012-11-06 13:27:00
7:53 AM,45.0,41.0,86,30.07,4.0,Calm,Calm,-,N/A,,Overcast,0,2012-11-06 13:53:00
8:20 AM,46.4,41.0,81,30.07,4.0,North,3.5,-,N/A,,Haze,350,2012-11-06 14:20:00
8:53 AM,46.0,41.0,83,30.08,5.0,NW,3.5,-,N/A,,Haze,310,2012-11-06 14:53:00
9:53 AM,48.0,41.0,77,30.08,8.0,WSW,3.5,-,N/A,,Overcast,240,2012-11-06 15:53:00
10:53 AM,50.0,42.1,74,30.07,10.0,Variable,5.8,-,N/A,,Mostly Cloudy,0,2012-11-06 16:53:00
11:22 AM,51.8,41.0,67,30.05,10.0,WSW,6.9,-,N/A,,Overcast,240,2012-11-06 17:22:00
11:31 AM,51.8,39.2,62,30.04,10.0,Calm,Calm,-,N/A,,Overcast,0,2012-11-06 17:31:00
11:48 AM,51.8,41.0,67,30.03,10.0,SW,5.8,-,N/A,,Overcast,220,2012-11-06 17:48:00
11:53 AM,52.0,41.0,66,30.04,10.0,SW,5.8,-,N/A,,Overcast,230,2012-11-06 17:53:00
12:53 PM,52.0,39.9,63,30.01,10.0,SW,4.6,-,N/A,,Overcast,230,2012-11-06 18:53:00
1:51 PM,53.6,41.0,62,29.97,10.0,SSW,9.2,-,N/A,,Overcast,210,2012-11-06 19:51:00
1:53 PM,53.1,41.0,64,29.98,10.0,SW,8.1,-,N/A,,Overcast,230,2012-11-06 19:53:00
2:11 PM,51.8,41.0,67,29.97,10.0,West,11.5,16.1,0.00,Rain,Light Rain,280,2012-11-06 20:11:00
2:53 PM,51.1,41.0,68,29.97,10.0,West,12.7,-,0.00,Rain,Light Rain,280,2012-11-06 20:53:00
3:53 PM,52.0,41.0,66,29.96,10.0,WSW,8.1,-,0.00,,Overcast,250,2012-11-06 21:53:00
4:50 PM,51.8,41.0,67,29.96,10.0,Calm,Calm,-,N/A,,Overcast,0,2012-11-06 22:50:00
4:53 PM,51.1,42.1,71,29.96,10.0,Calm,Calm,-,N/A,,Overcast,0,2012-11-06 22:53:00
5:53 PM,51.1,42.1,71,30.00,10.0,West,3.5,-,N/A,,Overcast,280,2012-11-06 23:53:00
6:53 PM,48.9,41.0,74,30.00,10.0,WNW,3.5,-,N/A,,Partly Cloudy,290,2012-11-07 00:53:00
7:53 PM,45.0,41.0,86,30.00,10.0,Calm,Calm,-,N/A,,Mostly Cloudy,0,2012-11-07 01:53:00
8:53 PM,44.1,41.0,89,30.01,10.0,SW,4.6,-,N/A,,Partly Cloudy,220,2012-11-07 02:53:00
9:53 PM,46.9,42.1,83,29.99,9.0,WSW,4.6,-,N/A,,Overcast,240,2012-11-07 03:53:00
10:53 PM,46.0,42.1,86,29.98,9.0,West,3.5,-,N/A,,Overcast,260,2012-11-07 04:53:00
11:53 PM,46.9,42.1,83,29.97,9.0,WSW,4.6,-,N/A,,Overcast,240,2012-11-07 05:53:00